Location: Laupheim
(48.2333°N, 9.8833°E)
Time: 15:21:08
(UTC+01:00)

ISS - Visible Passes

Search period start: 21 January 2019 00:00
Search period end: 31 January 2019 00:00
Orbit: 404 x 410 km, 51.6° (Epoch: 22 January)

Date Brightness Start Highest point End Pass type
(mag) Time Alt. Az. Time Alt. Az. Time Alt. Az.
22 Jan -1.3 19:29:07 10° SSW 19:30:01 16° SSW 19:30:01 16° SSW visible
23 Jan -2.2 18:38:25 10° S 18:40:57 20° SE 18:41:05 20° SE visible
24 Jan -1.5 17:48:19 10° SSE 17:49:50 13° SE 17:51:20 10° ESE visible
24 Jan -2.6 19:22:34 10° SW 19:24:48 38° SW 19:24:48 38° SW visible
25 Jan -3.1 18:31:26 10° SW 18:34:34 40° SSE 18:35:43 29° E visible
25 Jan -0.6 20:07:48 10° W 20:08:26 15° W 20:08:26 15° W visible
26 Jan -2.3 17:40:32 10° SSW 17:43:19 25° SE 17:46:07 10° E visible
26 Jan -3.5 19:16:20 10° WSW 19:19:16 64° WNW 19:19:16 64° WNW visible
27 Jan -3.8 18:24:57 10° WSW 18:28:15 78° SSE 18:30:03 25° ENE visible
27 Jan -0.9 20:01:45 10° W 20:02:46 18° WNW 20:02:46 18° WNW visible
28 Jan -3.4 19:10:14 10° W 19:13:29 52° N 19:13:30 52° N visible
29 Jan -3.6 18:18:43 10° W 18:22:00 65° NNW 18:24:13 19° ENE visible
29 Jan -1.2 19:55:38 10° WNW 19:56:55 20° WNW 19:56:55 20° WNW visible
30 Jan -3.2 19:04:07 10° WNW 19:07:18 44° N 19:07:36 43° NNE visible
